Regional Weather Roundup
Issued by NWS

Home | Current Version | Previous Version | Text Only | Print | Product List | Glossary On
Versions: 1 2 3 4 5 6 7 8 9 10 11 12 13 14 15 16 17 18 19 20 21 22 23 24 25 26 27 28 29 30 31 32 33 34 35 36 37 38 39 40 41 42 43 44 45 46 47 48 49 50
000
ASUS43 KDTX 270901
RWRMI
MICHIGAN HOURLY REGIONAL WEATHER ROUNDUP
NATIONAL WEATHER SERVICE DETROIT/PONTIAC MI
500 AM EDT WED MAY 27 2015

NOTE: "FAIR" INDICATES FEW OR NO CLOUDS BELOW 12,000 FEET WITH NO
SIGNIFICANT WEATHER AND/OR OBSTRUCTION TO VISIBILITY.

MIZ047>049-052>055-059>063-066>070-074>076-081>083-271000-
SOUTHEAST LOWER MICHIGAN

CITY           SKY/WX    TMP DP  RH WIND       PRES   REMARKS
ADRIAN         PTCLDY    65  61  87 SW14      29.95R
ALMA           PTCLDY    64  62  90 S8        29.84S
ANN ARBOR      CLEAR     64  61  90 S6        29.93S
BAD AXE        MOCLDY    65  60  84 SW9       29.86S
CARO           PTCLDY    65  61  88 S8        29.86F
DETROIT        CLOUDY    68  64  87 S9        29.94R
FLINT          CLEAR     68  59  73 SW8       29.89S
GROSSE ILE     PTCLDY    66  63  88 S8        29.93S
HILLSDALE      CLEAR     65  62  90 S6        29.94S
HOWELL         CLEAR     64  60  85 S7        29.90S

CITY           SKY/WX    TMP DP  RH WIND       PRES   REMARKS
JACKSON        CLEAR     66  59  78 SW13      29.91S
LAMBERTVILLE   PTCLDY    68  63  83 SW8       29.95S
LANSING        PTCLDY    64  59  83 S10       29.88S
LAPEER         FAIR      64  60  88 S7        29.89S
MASON          CLEAR     63  58  86 CALM      29.89F
MONROE         PTCLDY    68  63  83 S8        29.93S
MT. CLEMENS    PTCLDY    68  64  87 S10       29.90R
PONTIAC        PTCLDY    65  62  90 S7        29.91R
PORT HOPE        N/A    N/A N/A N/A SW7G17    29.83R
PORT HURON     MOCLDY    64  63  94 S7        29.91S
TRI CITIES     MOCLDY    68  60  75 SW13      29.84F
MIDLAND        FAIR      65  60  82 S8        29.82S
TROY           PTCLDY    67  65  91 SW7       29.93S
SAGINAW HB     CLEAR     64  64 100 SW12      29.84S
$$
MIZ043>046-050>051-056>058-064>065-071>073-077>080-271000-
SOUTHWEST LOWER MICHIGAN

CITY           SKY/WX    TMP DP  RH WIND       PRES   REMARKS
BATTLE CREEK   MOCLDY    66  60  81 S13       29.90R
BENTON HARBOR  CLOUDY    68  60  75 SW15G28   29.87R
BIG RAPIDS     DRIZZLE   63  60  90 S7        29.79F
COLDWATER      CLEAR     64  58  80 S6        29.92S
FREMONT        CLOUDY    61  60  96 SW13      29.81R
HOLLAND        CLOUDY    67  59  75 SW26      29.85R
GRAND RAPIDS   CLOUDY    67  61  81 S16G24    29.84S
IONIA          MOCLDY    67  60  79 SW15      29.84S
KALAMAZOO      MOCLDY    67  59  75 S10       29.89R
LUDINGTON      PTCLDY    58  55  90 SW17G24   29.77S
MARSHALL       PTCLDY    65  60  83 S8        29.90S
MOUNT PLEASANT PTCLDY    65  61  87 S8        29.81S
MUSKEGON       CLOUDY    59  56  89 SW15      29.83R
SOUTH HAVEN    CLOUDY    69  59  70 SW15G25   29.86R
$$
MIZ016>042-271000-
NORTHERN LOWER MICHIGAN

CITY           SKY/WX    TMP DP  RH WIND       PRES   REMARKS
ALPENA         MOCLDY    65  59  81 SW8       29.76S
BEAVER ISLAND  CLOUDY    59  55  87 S16G29    29.66F
BELLAIRE       PTCLDY    63  57  80 S7        29.71F
CADILLAC       CLOUDY    63  59  88 S14G22    29.77S
CHARLEVOIX     MOCLDY    63  58  83 S13       29.72F
FRANKFORT      CLEAR     61  53  73 S15G26    29.71F
GAYLORD        PTCLDY    61  59  93 S13       29.74F
HARBOR SPRINGS CLOUDY    60  56  85 SW12G21   29.70S
HOUGHTON LAKE  MOCLDY    63  59  87 S13G18    29.79F
MANISTEE       CLEAR     63  55  77 SW9G16    29.75S
OSCODA         MOCLDY    65  62  90 SW12G18   29.80R
PELLSTON       CLOUDY    64  58  80 S14G22    29.70S
ROGERS CITY    PTCLDY    64  60  87 S10       29.74S
TRAVERSE CITY  CLEAR     64  57  78 SW9       29.71R
$$
MIZ007>008-015-271000-
EASTERN UPPER MICHIGAN

CITY           SKY/WX    TMP DP  RH WIND       PRES   REMARKS
KINROSS        CLOUDY    61  59  94 SW8       29.68F
MACKINAC ISLAN CLOUDY    61  59  92 SW12G17   29.68F
NEWBERRY       CLOUDY    55  55  99 S15G22    29.64S
S. S. MARIE    LGT RAIN  62  58  86 SW16G26   29.68R
$$
MIZ004>006-011>014-085-271000-
CENTRAL UPPER MICHIGAN

CITY           SKY/WX    TMP DP  RH WIND       PRES   REMARKS
MANISTIQUE     RAIN      46  45  96 S7        29.64S
ESCANABA       CLOUDY    52  48  87 CALM      29.61F
MENOMINEE      CLOUDY    61  57  88 W8        29.61R
SAWYER-GWINN   MIX PCPN  46  45  96 CALM      29.65R
$$
MIZ001>003-009>011-084-271000-
WESTERN UPPER MICHIGAN

CITY           SKY/WX    TMP DP  RH WIND       PRES   REMARKS
IRON MOUNTAIN  LGT RAIN  57  56  96 NW8       29.64R
HOUGHTON       FOG       48  46  93 NW14      29.70R VSB 3/4
COPPER HARBOR    N/A     41  40  96 N5        29.70R
IRONWOOD       CLOUDY    50  50 100 W6        29.74R
$$

ABBREVIATIONS USED IN REMARKS
   TC - TEMPERATURE IN CELSIUS
  WCI - WIND CHILL INDEX
   HX - HEAT INDEX
  VSB - VISIBILITY




USA.gov is the U.S. government's official web portal to all federal, state and local government web resources and services.